KSLC

Salt Lake City International

Airport
ICAO code
KSLC
Summary
ICAO Region
NAM
ICAO Territory
Location

Salt Lake City, Utah,

Coordinates
40° 47' 8" N , 111° 58' 50" W
KCC
Airport LOS
Parallel Runway Operation
Airport RE
Hot and High Operations
Airport WX
Lake Effect Snow
Metar
KSLC 150954Z 13004KT 10SM FEW140 SCT170 26/12 A3012 RMK AO2 SLP127 T02560117

Description

Salt Lake City International Airport is a major public airport in Utah. A joint civil-military facility, it is located in western Salt Lake City.

Climatology

Dry-summer continental climate (Köppen climate classification Dsa) a relatively rare form of the continental climate where a region experiences dry summers and wet winters. There are four distinct seasons. Both summer and winter are long, with hot, dry summers and cold, snowy winters separated by brief spring and fall transition periods. Spring is the wettest season, while summer is usually the driest. Large seasonal temperature variation

Runways

Designator Length Width Surface Rops
14/32 1491 46 ASP Yes/Yes
17/35 2925 46 ASP Yes/Yes
16R/34L 3658 46 CON Yes/Yes
16L/34R 3659 46 ASP Yes/Yes

Airport map

Aerial View

SKYbrary Partners:

Safety knowledge contributed by: